Date,TemperatureHighF,TemperatureAvgF,TemperatureLowF,DewpointHighF,DewpointAvgF,DewpointLowF,HumidityHigh,HumidityAvg,HumidityLow,PressureMaxIn,PressureMinIn,WindSpeedMaxMPH,WindSpeedAvgMPH,GustSpeedMaxMPH,PrecipitationSumIn
2013-1-1,21.9,12.9,3.4,13.0,6.8,-1.7,85,77,62,30.40,30.21,8,2,8,0.01
2013-1-2,34.9,25.2,14.1,27.9,19.0,8.2,82,77,70,30.26,30.10,12,3,12,0.02
2013-1-3,30.9,24.1,13.6,25.8,17.7,9.0,84,76,64,30.45,30.25,21,6,21,0.00
2013-1-4,33.7,22.0,12.9,20.9,14.9,8.9,86,75,54,30.40,30.20,13,3,13,0.00
2013-1-5,39.2,28.3,17.2,29.9,21.1,12.9,86,75,56,30.24,30.02,26,6,27,0.00
2013-1-6,41.1,27.4,15.4,25.0,18.8,10.6,81,71,50,30.38,30.17,22,5,22,0.00
2013-1-7,44.1,32.8,27.0,28.9,24.0,20.0,85,71,51,30.16,29.95,26,4,27,0.00
2013-1-8,46.0,35.1,26.7,30.8,27.0,22.2,85,73,54,30.16,29.85,23,6,23,0.00
2013-1-9,50.8,35.9,24.7,33.7,27.6,20.6,89,73,49,30.46,30.15,8,2,8,0.00
2013-1-10,39.1,36.6,30.6,37.2,32.0,23.9,96,84,60,30.34,29.70,20,6,20,0.18
2013-1-11,55.3,44.7,29.4,46.9,39.5,20.9,97,83,49,29.77,29.37,34,12,34,0.01
2013-1-12,29.3,20.6,12.8,20.9,8.7,3.2,71,60,46,30.20,29.77,33,15,33,0.00
2013-1-13,22.7,13.6,7.4,6.0,3.0,-0.0,76,63,40,30.42,30.19,20,8,20,0.00
2013-1-14,30.4,17.5,3.7,14.1,6.8,-1.4,81,64,41,30.55,30.41,13,2,13,0.00
2013-1-15,36.3,23.3,11.6,15.6,11.6,5.6,79,62,36,30.42,30.10,13,3,13,0.00
2013-1-16,51.7,36.1,21.1,33.0,24.8,14.3,81,65,43,30.24,29.96,22,7,22,0.00
2013-1-17,43.9,30.8,25.8,36.3,27.4,22.9,95,87,69,30.51,30.24,11,3,11,0.00
2013-1-18,56.0,40.9,27.3,31.8,28.5,23.9,90,63,36,30.32,29.90,22,7,22,0.00
2013-1-19,54.8,40.5,26.0,30.9,26.7,15.1,80,60,35,30.33,29.87,29,10,29,0.00
2013-1-20,25.8,18.9,11.2,14.9,8.0,4.1,76,63,45,30.48,30.32,15,6,15,0.00
2013-1-21,15.9,12.8,10.0,9.6,-1.7,-9.3,81,53,39,30.53,30.43,21,8,21,0.00
2013-1-22,25.3,16.8,11.4,8.6,5.5,-2.9,74,61,46,30.46,30.30,13,4,13,0.00
2013-1-23,34.0,20.6,9.7,18.2,10.6,2.5,80,65,51,30.53,30.22,21,7,21,0.00
2013-1-24,21.3,12.3,2.4,6.0,-1.4,-6.7,67,54,42,30.61,30.24,17,10,17,0.00
2013-1-25,51.3,29.9,13.6,24.4,15.3,4.7,77,56,29,30.27,30.15,18,4,18,0.00
2013-1-26,54.8,33.6,19.1,26.2,21.3,15.1,85,64,27,30.28,30.01,21,10,21,0.00
2013-1-27,44.2,39.6,35.5,43.4,37.2,24.6,97,91,59,30.01,29.67,18,8,18,0.30
2013-1-28,47.9,39.6,32.9,47.9,39.2,32.1,100,98,97,29.86,29.53,12,5,12,0.00
2013-1-29,40.6,34.3,31.3,40.6,31.9,29.0,100,91,84,29.70,29.53,28,13,28,0.01
2013-1-30,31.3,21.8,10.7,29.7,16.4,5.7,96,80,60,30.01,29.62,32,17,32,0.00
2013-1-31,17.0,9.2,0.3,10.8,-0.6,-8.1,81,64,53,30.54,30.00,34,12,34,0.00
2013-2-1,27.6,14.6,-0.6,17.4,5.2,-8.6,74,66,56,30.54,30.12,21,6,21,0.00
2013-2-2,42.8,32.1,25.1,33.6,24.5,17.2,83,74,63,30.23,30.05,30,5,30,0.00
2013-2-3,44.5,35.1,23.5,28.6,24.1,16.7,78,65,45,30.26,29.81,25,6,25,0.00
2013-2-4,36.0,28.2,23.6,28.1,22.4,19.8,86,79,72,30.04,29.77,23,8,23,0.00
2013-2-5,51.0,36.7,26.0,33.0,27.1,22.4,87,70,42,30.08,29.89,22,5,22,0.00
2013-2-6,59.6,42.8,30.4,39.8,32.5,25.5,83,69,40,30.08,29.80,18,6,18,0.00
2013-2-7,44.1,35.2,29.4,38.4,29.6,23.1,84,80,75,30.27,29.84,26,14,26,0.00
2013-2-8,35.0,29.3,25.8,27.9,24.3,20.5,89,82,73,30.39,30.18,20,8,20,0.00
2013-2-9,51.7,38.3,29.3,38.4,31.5,26.1,89,77,59,30.20,29.65,25,16,25,0.00
2013-2-10,45.1,38.0,32.5,42.2,32.2,21.9,96,80,62,29.84,29.28,37,19,37,0.11
2013-2-11,40.1,32.5,24.5,24.5,21.8,19.8,83,65,51,30.19,29.84,43,14,43,0.00
2013-2-12,50.1,33.3,18.6,25.2,20.0,15.2,89,62,28,30.19,29.93,20,4,20,0.00
2013-2-13,55.0,38.6,25.6,29.1,24.2,18.6,80,59,31,29.93,29.73,17,4,17,0.00
2013-2-14,45.2,38.1,26.3,31.4,26.0,19.1,91,63,37,30.26,29.79,31,13,31,0.00
2013-2-15,34.4,26.0,14.6,24.8,17.3,8.7,89,71,45,30.43,30.26,17,5,17,0.00
2013-2-16,33.1,23.5,10.5,24.3,17.3,6.6,86,77,66,30.38,30.03,14,5,14,0.04
2013-2-17,55.0,38.0,24.5,36.7,27.7,19.1,82,67,49,30.03,29.55,21,10,21,0.00
2013-2-18,40.8,33.1,20.2,31.9,24.3,14.1,91,70,53,30.12,29.50,38,15,38,0.02
2013-2-19,27.5,18.8,11.7,15.7,4.5,-1.6,78,55,29,30.44,30.12,28,13,28,0.00
2013-2-20,24.7,16.1,6.5,7.7,3.7,-1.5,70,58,43,30.46,30.25,20,10,20,0.00
2013-2-21,23.6,21.9,20.5,19.6,14.5,7.4,90,75,50,30.27,29.85,23,13,23,0.00
2013-2-22,23.8,18.0,6.3,19.7,12.9,1.7,90,80,70,30.10,29.86,20,8,20,0.00
2013-2-23,38.8,24.7,4.3,27.3,17.6,-0.2,83,75,59,30.10,29.88,14,4,14,0.01
2013-2-24,26.1,22.6,20.2,21.1,18.5,15.9,85,84,81,29.99,29.88,6,0,6,0.00
2013-2-25,32.7,29.8,28.8,31.4,26.1,24.9,95,86,82,30.09,29.88,20,10,20,0.00
2013-2-26,29.0,27.1,26.6,26.2,24.4,23.9,91,89,89,29.90,29.75,20,6,20,0.00
2013-2-27,38.9,31.9,25.4,26.6,23.7,19.5,89,72,55,30.11,29.83,34,19,34,0.01
2013-2-28,31.2,27.9,27.2,24.2,21.5,20.0,79,77,73,30.26,30.11,30,9,30,0.00
2013-3-1,27.2,25.1,24.2,20.3,18.3,16.3,76,75,69,30.33,30.19,21,1,21,0.00
2013-3-2,32.0,29.9,24.2,17.7,16.0,15.4,76,57,50,30.30,30.11,0,0,0,0.00
2013-3-3,36.5,32.9,32.0,28.1,19.9,15.4,75,59,50,30.11,29.66,14,2,17,0.00
2013-3-4,35.2,34.0,30.3,30.3,26.8,25.0,88,75,71,30.05,29.58,12,2,17,0.00
2013-3-5,33.1,32.7,32.7,28.7,27.8,27.8,84,82,82,30.34,29.99,14,1,18,0.00
2013-3-6,32.7,32.7,32.7,27.8,27.8,27.8,82,82,82,30.38,30.19,0,0,0,0.00
2013-3-7,53.5,39.5,23.5,29.6,26.4,18.2,82,62,36,30.28,30.05,25,13,25,0.00
2013-3-8,45.2,31.9,28.4,38.0,26.5,23.9,84,80,72,30.18,29.89,15,4,17,0.02
2013-3-9,47.4,46.0,44.1,41.5,40.0,38.0,84,79,77,29.88,29.53,20,7,20,0.04
2013-3-10,47.4,47.4,47.4,40.6,40.6,40.6,77,77,77,29.89,29.61,0,0,0,0.00
2013-3-11,47.4,47.4,47.4,40.6,40.6,40.6,77,77,77,29.95,29.83,0,0,0,0.00
2013-3-12,47.4,47.4,47.4,40.6,40.6,40.6,77,77,77,30.29,29.95,0,0,0,0.00
2013-3-13,47.4,47.4,47.4,40.6,40.6,40.6,77,77,77,30.41,30.19,0,0,0,0.00
2013-3-14,47.4,47.4,47.4,40.6,40.6,40.6,77,77,77,30.19,30.01,0,0,0,0.00
2013-3-15,47.4,47.4,47.4,40.6,40.6,40.6,77,77,77,30.02,29.63,0,0,0,0.00
2013-3-16,47.4,33.7,30.4,40.6,27.5,24.3,87,78,70,30.18,29.78,23,10,23,0.00
2013-3-17,47.6,34.0,25.2,31.9,25.9,20.9,87,73,53,30.16,29.76,21,11,21,0.00
2013-3-18,41.8,35.1,27.5,32.8,23.2,13.5,94,65,34,30.08,29.74,36,12,36,0.12
2013-3-19,49.0,34.7,24.2,34.6,20.6,16.0,76,57,33,30.33,30.07,24,5,24,0.00
2013-3-20,37.6,26.0,16.4,18.4,10.2,3.5,80,53,31,30.43,30.13,21,10,21,0.00
2013-3-21,34.1,27.0,21.0,17.6,14.0,10.4,79,59,40,30.13,29.93,18,8,18,0.00
2013-3-22,35.5,31.7,28.1,20.7,18.6,14.1,72,59,48,30.05,29.97,11,4,11,0.00
2013-3-23,36.5,31.5,27.5,29.2,24.8,20.3,93,77,60,30.12,30.01,18,8,18,0.00
2013-3-24,29.4,26.8,24.0,25.4,21.2,16.9,90,79,66,30.12,30.04,28,16,28,0.00
2013-3-25,30.8,26.9,24.2,24.4,21.6,18.4,89,81,65,30.38,30.11,26,15,26,0.00
2013-3-26,42.8,28.7,16.0,22.8,18.1,11.2,86,66,41,30.43,30.26,13,3,13,0.00
2013-3-27,53.1,37.6,26.1,32.4,26.1,21.1,82,65,41,30.30,30.17,20,10,20,0.00
2013-3-28,61.8,44.7,25.3,33.6,30.0,22.4,90,60,29,30.26,30.12,11,4,11,0.00
2013-3-29,70.3,52.4,30.8,39.7,32.8,27.2,91,53,22,30.21,30.01,21,7,21,0.00
2013-3-30,67.5,55.6,47.0,54.9,44.3,33.9,94,69,34,30.05,29.84,23,7,23,1.17
2013-3-31,58.2,49.8,34.4,42.4,34.4,24.2,90,60,28,30.10,29.91,28,11,28,0.02
2013-4-1,41.2,32.1,24.1,31.7,20.5,14.5,92,65,36,30.34,30.10,21,9,21,0.01
2013-4-2,52.6,36.7,18.1,27.6,21.7,15.3,91,58,34,30.36,30.25,12,2,12,0.00
2013-4-3,53.9,41.1,28.7,27.9,24.4,21.3,76,53,33,30.36,30.22,14,5,14,0.00
2013-4-4,65.3,46.4,25.8,38.8,31.4,21.3,86,58,36,30.23,30.02,17,4,17,0.00
2013-4-5,71.3,48.9,33.3,39.7,32.8,28.3,85,58,24,30.15,29.69,25,7,25,0.00
2013-4-6,71.0,59.5,50.5,46.9,40.9,37.1,72,52,31,29.75,29.56,28,10,28,0.00
2013-4-7,74.5,57.9,40.5,52.1,41.3,35.0,91,58,28,29.80,29.56,20,6,20,0.21
2013-4-8,67.8,58.5,47.1,62.3,55.6,45.8,96,90,81,29.65,29.58,17,6,17,0.20
2013-4-9,63.7,50.4,35.0,60.1,47.9,32.8,94,91,86,30.02,29.52,28,13,28,0.29
2013-4-10,37.4,35.7,32.5,36.1,34.1,31.0,96,94,90,29.95,29.72,25,12,25,0.46
2013-4-11,35.9,32.8,30.4,32.4,28.9,26.6,94,85,78,29.82,29.69,21,11,21,0.00
2013-4-12,45.9,36.6,32.0,31.5,28.8,26.2,85,74,54,30.03,29.76,30,13,30,0.00
2013-4-13,58.0,42.2,24.5,40.5,32.9,22.4,93,71,50,30.05,29.62,23,9,23,0.00
2013-4-14,68.8,56.3,45.7,51.7,41.1,29.5,79,59,32,29.66,29.30,33,13,33,0.01
2013-4-15,45.7,40.8,35.0,31.3,27.1,21.3,73,58,49,30.07,29.65,21,7,21,0.00
2013-4-16,50.3,42.2,32.3,33.8,29.6,26.9,82,62,42,30.23,30.05,20,10,20,0.00
2013-4-17,45.8,42.2,37.9,42.6,38.6,33.4,95,88,62,30.12,29.54,36,11,36,1.12
2013-4-18,37.8,34.6,32.1,35.7,30.8,26.3,94,86,75,29.94,29.69,34,21,34,0.31
2013-4-19,47.9,37.4,28.0,27.3,23.5,19.2,81,59,34,30.12,29.90,26,14,26,0.00
2013-4-20,50.2,37.6,22.3,30.3,25.0,18.9,89,63,37,30.26,30.12,21,8,21,0.00
2013-4-21,68.2,55.5,43.0,49.7,38.8,29.0,93,56,36,30.16,29.97,29,13,29,0.30
2013-4-22,56.6,46.7,33.8,50.3,43.6,29.5,95,89,76,30.18,29.89,29,9,29,0.86
2013-4-23,38.4,32.8,29.9,29.8,25.9,23.3,86,76,61,30.23,30.13,28,16,28,0.00
2013-4-24,60.1,41.3,24.3,35.9,26.7,20.5,86,61,26,30.24,30.05,31,7,31,0.00
2013-4-25,69.7,50.6,27.9,38.6,32.9,25.6,94,57,26,30.26,30.01,25,6,25,0.00
2013-4-26,67.8,56.4,45.9,50.3,44.2,36.8,92,64,50,30.16,30.01,21,8,21,0.00
2013-4-27,66.6,54.2,44.9,51.2,47.4,42.6,95,79,53,30.16,29.92,12,3,12,0.00
2013-4-28,82.3,62.7,44.3,54.6,49.1,42.9,96,66,32,29.93,29.64,23,7,23,0.00
2013-4-29,85.8,69.1,51.4,57.5,53.6,49.1,93,62,33,29.70,29.45,21,5,21,0.00
2013-4-30,78.1,70.9,60.2,58.5,52.4,44.8,72,53,42,29.78,29.44,30,12,30,0.00
2013-5-1,60.5,44.7,34.3,48.3,38.3,32.5,93,80,57,30.38,29.78,32,20,32,1.21
2013-5-2,48.2,39.0,32.6,34.0,31.6,28.3,95,76,51,30.53,30.35,29,14,29,0.24
2013-5-3,46.5,39.8,31.4,32.9,29.9,27.1,84,68,51,30.38,30.00,25,13,25,0.00
2013-5-4,43.6,39.8,35.6,40.3,36.5,32.4,92,88,74,30.13,29.95,24,16,24,0.01
2013-5-5,54.2,47.0,41.3,48.2,43.5,39.6,94,88,78,30.16,30.08,18,9,18,0.00
2013-5-6,69.2,55.1,47.1,54.6,48.9,45.4,94,81,53,30.13,29.99,12,5,12,0.03
2013-5-7,73.9,60.9,41.8,56.7,50.8,40.7,97,72,47,30.05,29.88,15,4,15,0.44
2013-5-8,71.5,64.1,57.3,59.6,55.5,51.0,89,74,58,29.91,29.81,17,4,17,0.12
2013-5-9,68.6,61.4,57.4,58.3,56.1,54.0,93,83,62,29.93,29.77,21,9,21,0.25
2013-5-10,69.0,58.1,48.9,54.4,48.2,43.5,89,72,41,30.05,29.93,20,9,20,0.10
2013-5-11,61.9,54.2,38.7,46.3,31.9,18.8,89,47,20,30.23,29.99,33,13,33,0.00
2013-5-12,68.5,51.8,33.2,34.3,28.2,21.4,78,45,19,30.26,30.08,10,2,10,0.01
2013-5-13,83.5,65.8,47.3,52.9,44.3,33.5,77,49,26,30.09,29.80,21,8,21,0.10
2013-5-14,97.1,80.7,61.9,61.0,54.5,46.5,79,45,19,29.80,29.57,24,9,24,0.02
2013-5-15,85.2,74.9,62.1,54.5,50.5,44.4,72,44,27,29.80,29.67,21,8,21,0.02
2013-5-16,83.6,73.3,62.1,64.5,60.2,53.2,91,66,42,29.80,29.68,20,5,20,0.02
2013-5-17,85.2,74.9,60.8,63.1,59.7,56.9,88,61,41,29.83,29.74,29,6,29,0.01
2013-5-18,85.0,74.5,60.7,69.0,63.5,57.3,89,70,54,29.82,29.59,26,10,27,0.09
2013-5-19,82.0,66.9,59.8,68.9,60.7,56.4,93,82,52,29.74,29.40,30,9,30,0.46
2013-5-20,77.0,67.1,55.9,62.1,55.4,48.6,95,68,44,29.62,29.47,22,9,22,0.00
2013-5-21,65.5,60.7,54.5,55.4,49.6,45.3,84,68,53,29.70,29.57,24,10,24,0.00
2013-5-22,61.6,56.5,51.5,50.6,48.5,46.9,85,75,62,29.94,29.69,24,13,24,0.00
2013-5-23,72.8,60.5,52.4,53.0,48.0,43.0,87,66,36,30.18,29.94,21,9,21,0.00
2013-5-24,75.4,63.7,47.2,51.9,48.7,43.3,88,60,39,30.24,29.96,28,12,28,0.00
2013-5-25,84.0,70.5,58.9,68.6,60.8,47.6,94,73,54,30.06,29.86,23,10,23,0.38
2013-5-26,86.1,75.7,67.8,70.9,66.9,63.1,89,75,59,29.91,29.73,21,10,21,0.00
2013-5-27,77.7,68.7,60.4,68.3,63.3,58.3,95,84,63,29.83,29.48,31,12,31,4.26
2013-5-28,81.0,69.9,61.8,71.2,64.4,59.4,96,84,63,29.65,29.55,20,5,21,0.02
2013-5-29,77.2,69.2,63.1,71.2,65.2,60.6,93,87,79,29.70,29.45,26,12,26,1.60
2013-5-30,75.1,65.8,59.2,63.9,60.1,54.7,95,83,63,29.59,29.44,26,8,26,0.23
2013-5-31,80.8,69.2,55.2,57.8,51.7,44.8,91,58,30,29.67,29.56,20,6,20,10.87
2013-6-1,64.7,59.9,55.3,55.0,50.3,47.0,77,71,55,29.98,29.62,26,14,27,0.00
2013-6-2,69.1,59.0,52.2,48.5,45.9,42.5,84,63,41,30.09,29.96,20,7,20,0.00
2013-6-3,76.5,63.8,49.9,54.7,49.9,46.0,87,63,41,30.00,29.76,25,11,25,0.05
2013-6-4,78.6,68.5,60.2,65.7,60.6,54.3,89,76,61,29.91,29.79,21,7,21,0.09
2013-6-5,74.5,65.0,54.6,63.9,55.1,49.9,94,72,46,29.98,29.87,25,8,25,0.44
2013-6-6,73.0,63.2,51.8,56.9,51.4,48.4,89,67,46,29.95,29.89,16,6,16,0.00
2013-6-7,75.6,63.9,49.9,55.6,50.9,47.7,94,65,41,29.99,29.84,13,4,13,0.09
2013-6-8,77.8,64.7,56.4,64.6,56.6,50.9,94,76,57,29.85,29.59,31,9,31,0.51
2013-6-9,72.3,65.5,59.1,61.6,58.2,55.3,94,78,62,29.78,29.67,24,10,24,0.02
2013-6-10,83.0,69.7,55.3,66.4,60.2,53.1,93,73,49,29.84,29.70,20,6,20,0.02
2013-6-11,95.5,79.0,67.7,69.6,65.1,48.9,90,65,22,29.74,29.56,24,9,24,0.02
2013-6-12,90.2,79.7,65.0,71.5,65.3,54.3,80,63,45,29.95,29.58,25,11,25,0.00
2013-6-13,79.8,68.6,57.8,60.8,56.1,50.3,87,66,38,30.04,29.90,14,5,14,0.01
2013-6-14,91.0,76.5,64.8,74.6,66.3,58.4,86,72,57,29.96,29.68,26,12,27,0.13
2013-6-15,86.7,74.8,66.5,69.5,65.5,52.8,93,74,34,29.90,29.74,33,7,33,0.14
2013-6-16,85.5,75.0,66.6,70.7,66.8,63.0,96,78,48,29.92,29.83,14,4,14,0.00
2013-6-17,88.5,78.5,67.7,70.4,61.6,51.6,94,61,29,29.93,29.85,15,4,15,0.00
2013-6-18,84.3,74.3,64.0,62.4,58.9,55.1,84,60,39,29.99,29.88,16,3,16,0.00
2013-6-19,87.2,76.5,64.1,67.7,63.0,59.6,88,65,42,29.93,29.81,20,8,20,0.00
2013-6-20,91.4,81.0,69.3,73.5,69.0,62.4,85,68,54,29.88,29.71,28,13,28,0.00
2013-6-21,95.0,85.2,76.8,74.3,71.5,69.2,81,65,45,29.78,29.69,25,13,25,0.00
2013-6-22,91.0,83.4,75.5,71.9,67.6,58.9,74,60,46,29.87,29.68,33,13,33,0.00
2013-6-23,81.6,74.4,64.9,73.1,68.4,62.0,94,82,65,29.85,29.67,25,8,25,1.75
2013-6-24,84.0,76.2,71.5,75.9,70.7,67.0,94,83,69,29.86,29.64,25,7,25,0.22
2013-6-25,88.2,81.0,73.8,76.8,70.8,62.3,86,71,61,29.71,29.56,24,9,24,0.01
2013-6-26,91.7,81.4,72.3,73.3,68.7,60.0,95,69,36,29.80,29.56,17,6,17,0.11
2013-6-27,82.4,73.0,67.1,73.5,68.4,65.0,94,86,68,29.95,29.79,28,3,28,0.23
2013-6-28,85.4,76.7,67.1,69.3,62.4,55.1,94,65,36,29.92,29.82,22,9,22,0.00
2013-6-29,81.1,72.3,63.5,60.8,57.6,54.3,78,61,42,29.88,29.80,31,12,31,7.19
2013-6-30,78.7,68.6,57.8,60.1,56.0,51.2,92,66,42,30.04,29.87,20,5,20,0.02
2013-7-1,82.6,69.4,52.0,60.3,53.9,49.4,93,61,35,30.12,30.03,14,4,14,0.01
2013-7-2,83.4,70.1,56.2,61.1,56.5,51.7,90,65,36,30.09,29.97,12,1,12,8.70
2013-7-3,85.6,69.5,55.7,63.5,57.2,50.1,96,69,35,30.00,29.88,32,2,32,0.37
2013-7-4,86.6,73.9,59.8,60.9,57.1,53.6,83,59,34,29.93,29.81,21,6,21,0.59
2013-7-5,88.5,77.0,64.9,66.4,62.0,57.7,79,61,41,29.85,29.74,18,8,18,0.80
2013-7-6,86.8,77.4,68.2,69.2,64.6,61.4,80,66,51,29.80,29.71,21,10,21,0.05
2013-7-7,95.3,83.5,73.7,71.6,66.3,61.6,72,58,38,29.81,29.71,22,8,22,29.93
2013-7-8,88.4,82.0,76.1,75.1,70.6,66.7,80,69,56,29.87,29.80,20,6,20,7.67
2013-7-9,97.3,85.3,74.6,77.1,73.1,68.5,88,68,46,29.84,29.73,15,4,15,9.18
2013-7-10,85.0,78.7,71.4,74.1,68.0,63.5,86,71,52,30.00,29.83,14,4,14,12.54
2013-7-11,85.5,75.6,63.3,64.6,61.7,58.2,84,64,44,30.04,29.87,20,7,20,1.25
2013-7-12,90.4,78.6,67.5,72.6,65.8,59.4,77,65,53,29.92,29.82,22,12,22,0.00
2013-7-13,86.4,79.3,73.2,74.3,67.6,61.0,75,68,61,29.89,29.82,20,11,20,0.29
2013-7-14,85.9,77.2,69.0,67.1,63.4,58.7,84,64,42,30.06,29.88,21,10,21,0.00
2013-7-15,87.7,76.5,61.5,71.3,65.7,58.6,91,71,46,30.11,30.02,18,5,18,0.03
2013-7-16,90.5,79.9,68.0,70.6,67.4,63.8,91,68,45,30.17,30.08,17,3,17,0.07
2013-7-17,93.1,81.3,70.5,72.4,69.6,65.6,92,70,42,30.21,30.07,13,3,13,0.32
2013-7-18,93.8,77.9,70.0,71.0,68.2,64.7,89,74,39,30.08,29.84,15,3,15,0.00
2013-7-19,94.0,83.1,73.6,71.3,66.6,51.9,77,59,40,29.86,29.76,13,4,13,0.00
2013-7-20,84.7,76.8,66.7,68.8,64.8,60.2,84,67,47,29.89,29.76,14,4,14,0.00
2013-7-21,91.3,79.1,68.4,71.2,68.2,65.2,92,71,44,29.83,29.67,11,4,11,0.00
2013-7-22,96.1,82.0,68.4,75.2,70.5,66.6,96,71,41,29.74,29.62,14,5,14,0.00
2013-7-23,79.3,72.4,65.0,67.5,65.3,62.9,94,79,65,29.92,29.72,31,6,31,0.24
2013-7-24,83.5,71.8,59.1,65.9,62.5,57.7,96,75,49,30.01,29.90,15,3,15,0.00
2013-7-25,80.3,72.3,65.5,67.2,64.7,61.8,92,78,60,29.98,29.92,14,4,14,0.00
2013-7-26,78.5,70.9,58.9,67.1,59.7,50.7,100,71,38,30.04,29.89,22,8,22,0.00
2013-7-27,73.7,63.8,53.3,54.9,49.6,42.9,94,64,37,30.08,29.95,30,5,30,0.00
2013-7-28,78.4,63.3,47.1,54.6,50.3,45.2,97,66,38,30.02,29.95,12,2,12,0.00
2013-7-29,65.8,63.3,60.3,65.1,60.6,54.1,100,91,72,30.00,29.93,14,6,14,0.74
2013-7-30,77.3,69.8,64.9,69.0,66.6,64.9,100,90,72,30.04,29.94,10,4,10,0.00
2013-7-31,84.4,73.6,62.0,71.0,65.9,61.1,100,79,55,30.08,29.97,8,2,8,0.00
2013-8-1,88.4,74.7,62.5,72.0,66.1,61.7,100,78,43,30.02,29.79,28,6,28,1.66
2013-8-2,82.8,73.9,65.2,71.8,66.8,62.6,92,79,61,29.92,29.72,20,7,20,0.02
2013-8-3,80.4,70.3,62.0,66.0,61.8,58.8,90,75,54,30.10,29.92,13,6,13,0.00
2013-8-4,75.7,69.0,63.0,68.0,62.4,57.6,90,80,70,30.10,29.95,16,6,16,0.00
2013-8-5,87.5,76.2,68.9,75.2,71.1,66.8,97,85,63,29.97,29.75,15,4,15,0.00
2013-8-6,90.7,78.4,67.6,76.9,72.4,67.6,100,83,60,29.82,29.70,17,4,17,0.00
2013-8-7,85.8,77.1,70.0,73.7,66.3,58.0,96,72,40,29.91,29.72,14,4,14,0.00
2013-8-8,76.4,70.4,63.7,67.2,64.7,61.5,94,83,69,29.95,29.87,8,2,8,0.00
2013-8-9,81.9,72.8,62.1,68.6,65.4,58.9,96,79,57,30.07,29.94,16,3,16,0.00
2013-8-10,83.2,70.3,56.0,65.2,60.8,54.9,97,74,49,30.14,30.01,13,4,13,0.00
2013-8-11,86.7,75.0,62.1,69.6,65.0,59.6,92,73,51,30.06,29.91,15,4,15,0.00
2013-8-12,84.8,75.9,68.1,73.3,67.2,61.8,95,76,50,29.98,29.90,12,4,12,0.11
2013-8-13,78.1,70.1,61.9,62.8,59.7,55.2,92,71,46,30.09,29.99,10,3,10,0.00
2013-8-14,76.2,66.8,56.3,63.8,58.9,54.0,93,77,56,30.13,30.01,13,4,13,0.00
2013-8-15,69.9,64.0,60.2,64.2,60.5,58.8,95,89,80,30.03,29.95,17,8,17,0.54
2013-8-16,73.7,66.7,62.1,62.4,60.1,58.6,91,80,62,30.11,30.03,14,6,14,0.00
2013-8-17,78.6,67.9,58.2,62.4,58.9,56.3,96,75,50,30.14,30.05,15,4,15,0.00
2013-8-18,80.6,67.4,52.3,64.9,59.3,51.5,100,78,51,30.10,29.98,15,4,15,0.00
2013-8-19,85.9,74.0,63.0,71.1,66.1,60.9,94,78,56,30.03,29.86,16,6,16,0.00
2013-8-20,89.6,78.2,68.3,71.9,68.5,65.9,92,74,50,29.91,29.83,20,6,20,0.00
2013-8-21,92.6,79.6,68.4,74.1,69.3,65.7,91,73,47,29.92,29.84,16,6,16,0.00
2013-8-22,84.8,76.6,69.7,72.1,69.5,66.1,93,79,63,29.99,29.88,14,5,14,0.00
2013-8-23,89.6,78.5,69.0,74.3,70.0,67.4,97,77,49,29.99,29.88,17,6,17,0.00
2013-8-24,92.1,81.1,72.4,74.7,71.2,68.6,88,73,52,29.98,29.91,21,9,21,0.00
2013-8-25,94.6,82.5,71.7,75.7,72.0,69.0,92,72,48,30.04,29.94,18,7,18,0.00
2013-8-26,96.0,83.3,73.1,72.9,70.9,69.4,89,68,43,30.00,29.86,20,7,20,0.00
2013-8-27,95.5,84.0,74.6,71.9,69.0,65.0,79,62,42,29.88,29.80,22,7,22,0.00
2013-8-28,93.7,81.1,68.3,71.7,66.6,62.7,87,64,37,29.91,29.84,14,4,14,0.00
2013-8-29,96.7,82.5,71.1,75.8,71.9,67.4,94,73,39,29.91,29.80,15,5,15,0.00
2013-8-30,98.5,84.7,71.9,77.4,70.8,66.9,87,66,39,29.82,29.70,11,4,11,0.00
2013-8-31,93.4,80.8,72.7,75.4,72.0,67.8,95,77,45,29.79,29.68,13,3,13,0.00
2013-9-1,84.1,77.0,68.1,72.2,62.8,56.0,95,65,40,29.91,29.65,23,9,27,0.30
2013-9-2,81.2,70.6,57.1,62.0,57.3,52.4,97,66,38,30.03,29.91,14,4,14,0.00
2013-9-3,84.9,68.1,51.1,63.3,57.7,49.9,97,73,40,30.05,29.95,10,3,10,0.00
2013-9-4,85.4,72.8,62.6,66.1,62.6,59.9,94,73,44,30.09,29.98,12,3,12,0.00
2013-9-5,86.5,74.6,66.6,66.4,63.3,58.8,89,70,40,30.11,30.01,13,4,13,0.00
2013-9-6,92.3,78.2,65.8,71.6,66.0,60.4,87,68,46,30.02,29.83,20,7,20,0.00
2013-9-7,95.0,82.2,69.8,72.5,69.4,65.4,93,68,42,29.84,29.74,14,5,14,0.00
2013-9-8,94.4,76.3,68.7,75.1,70.9,67.4,96,85,48,29.82,29.68,8,2,8,0.00
2013-9-9,97.8,84.4,73.5,71.6,63.3,57.9,82,52,28,29.77,29.69,23,8,23,0.00
2013-9-10,96.3,82.1,69.3,68.0,63.9,60.2,77,56,35,29.96,29.77,21,7,21,0.00
2013-9-11,82.4,74.6,69.6,72.9,69.9,67.3,96,86,66,30.06,29.95,15,2,15,0.34
2013-9-12,81.0,72.5,62.1,68.7,60.1,51.9,97,69,38,30.13,30.03,16,5,16,0.13
2013-9-13,75.7,64.3,51.7,54.2,51.0,47.9,90,65,40,30.17,30.01,13,3,13,0.00
2013-9-14,79.0,64.8,50.6,57.7,52.6,48.2,96,68,38,30.03,29.82,17,7,21,0.00
2013-9-15,69.5,65.7,61.6,65.5,59.3,55.3,92,80,66,30.16,29.78,16,6,16,0.07
2013-9-16,63.3,59.7,53.6,56.9,54.5,51.1,96,83,75,30.26,30.14,16,7,16,0.02
2013-9-17,79.4,66.3,57.8,69.2,63.1,56.7,100,90,69,30.14,29.81,16,8,16,0.57
2013-9-18,91.8,78.4,67.0,71.0,67.6,65.2,94,72,44,29.83,29.61,25,10,25,0.00
2013-9-19,86.3,72.4,59.8,69.0,63.8,52.7,95,75,52,29.93,29.65,29,7,29,0.82
2013-9-20,71.5,59.9,48.5,53.6,48.4,44.1,94,69,38,30.04,29.91,20,8,20,0.00
2013-9-21,78.1,60.6,43.6,54.7,49.4,42.5,97,71,41,30.00,29.81,13,5,13,0.00
2013-9-22,80.9,66.4,53.7,58.5,52.5,48.7,92,65,33,29.85,29.74,21,8,21,0.00
2013-9-23,77.8,65.1,51.9,55.8,52.0,49.1,91,65,40,29.79,29.64,26,13,26,0.00
2013-9-24,72.7,64.6,54.8,59.0,56.3,53.3,96,75,60,29.84,29.61,20,7,20,0.00
2013-9-25,80.7,65.2,49.9,62.2,56.9,49.1,100,78,48,29.86,29.68,21,6,21,0.00
2013-9-26,88.2,73.6,60.4,61.6,59.3,57.1,93,65,37,29.74,29.65,30,15,30,0.00
2013-9-27,88.5,76.6,67.8,61.6,59.9,56.5,80,59,36,29.77,29.67,26,15,26,0.00
2013-9-28,73.0,62.1,46.7,64.3,52.2,43.7,94,72,41,30.01,29.58,22,10,22,0.44
2013-9-29,77.6,58.9,42.8,51.6,44.7,41.5,97,66,29,30.04,29.84,17,5,17,0.00
2013-9-30,81.0,63.5,48.8,54.6,50.3,46.2,92,66,34,29.87,29.67,21,6,21,0.00
2013-10-1,82.3,67.6,53.1,57.1,54.2,50.3,91,65,39,29.88,29.73,12,3,12,0.00
2013-10-2,85.3,70.8,57.8,67.2,61.2,54.5,97,74,45,29.89,29.75,18,5,18,0.00
2013-10-3,80.9,70.4,61.3,69.1,64.1,58.8,95,81,64,29.82,29.60,33,8,33,1.83
2013-10-4,86.8,69.3,53.7,72.5,61.3,39.9,96,78,43,29.85,29.55,21,11,21,0.13
2013-10-5,53.8,48.1,42.9,39.8,34.8,32.9,74,60,47,29.91,29.81,23,10,23,0.00
2013-10-6,52.7,46.9,41.9,45.7,41.5,36.1,96,82,66,29.99,29.78,28,11,28,0.00
2013-10-7,75.0,57.0,41.1,46.8,39.8,36.0,88,58,27,30.08,29.96,17,4,17,0.00
2013-10-8,78.0,61.6,46.4,48.1,44.5,41.5,84,57,31,29.98,29.85,24,9,24,0.00
2013-10-9,79.6,63.9,51.0,53.1,49.7,46.6,85,62,38,29.95,29.87,21,10,21,0.00
2013-10-10,81.3,65.9,51.7,57.6,53.0,47.8,87,65,42,29.94,29.73,22,10,22,0.00
2013-10-11,80.1,66.9,54.0,60.4,50.3,37.6,85,61,22,29.85,29.58,25,13,25,0.00
2013-10-12,67.1,52.0,39.3,43.1,37.1,31.7,93,62,27,30.25,29.85,16,3,16,0.00
2013-10-13,70.2,52.9,34.4,40.3,35.8,32.8,95,58,27,30.39,30.25,14,5,16,0.00
2013-10-14,62.5,55.2,49.2,59.7,46.7,35.3,96,74,53,30.25,29.70,28,12,28,0.00
2013-10-15,56.8,49.1,44.5,52.3,40.5,36.5,89,72,60,30.05,29.78,28,15,28,0.00
2013-10-16,58.8,47.4,36.9,41.7,37.1,32.1,91,70,38,30.07,29.94,15,6,15,0.00
2013-10-17,61.1,46.1,32.8,43.4,37.4,31.7,97,74,44,30.05,29.88,23,7,23,0.00
2013-10-18,49.1,41.0,34.2,38.1,32.9,28.8,93,74,47,30.13,30.02,10,4,10,0.00
2013-10-19,63.8,47.3,30.2,49.2,35.1,28.9,97,67,33,30.02,29.80,21,5,21,0.00
2013-10-20,64.5,51.3,39.6,45.5,39.0,35.1,85,65,39,29.98,29.70,18,5,18,0.00
2013-10-21,56.2,43.0,27.6,38.1,34.0,26.2,96,72,46,30.10,29.92,16,4,16,0.00
2013-10-22,52.4,45.2,34.3,44.7,38.1,31.7,91,77,60,30.11,29.85,30,9,30,0.00
2013-10-23,52.1,39.3,27.3,39.5,33.6,26.1,97,82,54,30.21,30.03,15,3,15,0.00
2013-10-24,42.3,33.6,26.0,35.0,28.9,22.9,94,83,47,30.41,30.20,17,3,17,0.00
2013-10-25,59.6,41.3,23.7,33.9,28.0,21.2,93,64,35,30.42,30.07,21,5,21,0.00
2013-10-26,52.5,43.5,26.5,37.5,32.1,23.8,90,66,41,30.20,30.01,18,6,18,0.00
2013-10-27,70.5,46.5,23.8,37.6,31.0,22.0,95,61,28,30.15,29.82,20,4,20,0.00
2013-10-28,56.1,46.9,37.4,39.6,36.2,31.1,85,67,51,30.16,29.91,23,9,23,0.00
2013-10-29,56.2,49.4,43.5,56.2,47.1,38.8,100,92,67,30.13,29.89,14,6,14,0.10
2013-10-30,59.1,51.0,44.9,56.7,49.9,42.6,100,96,89,29.91,29.70,17,6,17,0.46
2013-10-31,57.8,46.0,38.6,46.7,40.2,36.3,100,82,51,29.74,29.50,22,3,22,0.00
2013-11-1,59.8,47.6,39.2,43.4,38.3,34.1,87,72,39,29.98,29.59,30,10,30,0.00
2013-11-2,58.8,45.7,34.8,39.2,34.5,31.6,88,67,37,30.18,29.98,16,6,16,0.00
2013-11-3,58.4,48.8,37.7,40.0,35.6,32.1,81,62,43,30.08,29.73,33,13,33,0.00
2013-11-4,57.5,50.7,40.9,46.0,40.7,35.8,84,69,49,30.09,29.75,17,6,17,0.00
2013-11-5,49.7,45.1,35.1,48.9,41.9,33.4,97,89,75,30.09,29.75,25,9,25,0.00
2013-11-6,44.3,36.9,30.9,35.4,32.6,29.0,95,85,65,30.29,30.02,25,8,25,0.00
2013-11-7,50.3,37.1,27.5,33.0,27.3,23.3,97,71,35,30.42,30.28,21,5,21,0.00
2013-11-8,65.7,51.5,32.2,38.4,34.7,25.8,80,55,31,30.29,29.73,31,8,31,0.00
2013-11-9,61.9,48.6,37.0,36.8,34.7,32.3,89,61,34,30.32,29.90,18,5,18,0.00
2013-11-10,54.5,42.2,26.5,37.1,31.6,24.9,96,69,38,30.40,30.15,15,3,15,0.00
2013-11-11,45.7,35.4,19.7,44.3,28.2,11.6,96,75,55,30.77,30.09,28,12,28,0.00
2013-11-12,35.1,21.5,10.3,12.9,9.8,6.7,88,63,31,30.93,30.63,13,3,13,0.00
2013-11-13,54.1,36.2,20.5,28.4,20.9,11.3,73,55,36,30.65,30.03,21,8,21,0.00
2013-11-14,54.2,42.6,30.2,32.7,26.3,20.0,91,54,37,30.02,29.87,15,5,15,0.00
2013-11-15,57.4,41.1,23.2,42.7,33.1,21.6,96,75,46,29.90,29.59,21,6,21,0.00
2013-11-16,67.1,54.5,45.6,53.6,41.0,28.4,93,65,28,29.59,29.29,35,9,35,0.00
2013-11-17,57.7,49.9,36.5,39.4,35.0,31.5,85,58,42,30.05,29.22,35,10,35,0.00
2013-11-18,58.8,41.4,28.4,33.1,27.0,23.3,89,61,28,30.26,30.05,16,4,16,0.00
2013-11-19,62.1,47.9,34.1,33.9,27.7,23.8,72,48,26,30.18,29.86,29,11,29,0.00
2013-11-20,58.6,48.5,38.1,38.1,34.1,27.6,88,59,42,29.89,29.71,22,11,22,0.00
2013-11-21,38.0,29.2,20.9,34.8,25.2,17.1,93,85,78,30.57,29.89,31,15,31,0.00
2013-11-22,25.8,19.2,14.1,17.4,12.2,9.0,86,74,55,30.75,30.57,21,8,21,0.00
2013-11-23,22.2,17.0,9.9,14.1,7.6,3.2,82,67,46,30.93,30.68,18,6,18,0.00
2013-11-24,30.8,19.8,8.2,15.3,10.1,4.5,85,67,48,30.82,30.28,18,7,18,0.00
2013-11-25,42.0,31.7,25.2,29.2,21.9,13.2,82,67,57,30.28,30.14,16,5,16,0.00
2013-11-26,33.3,25.5,14.0,24.7,15.0,6.7,86,66,36,30.46,30.21,30,11,30,0.00
2013-11-27,34.0,22.4,8.8,18.2,11.3,5.2,86,64,41,30.46,30.09,21,6,21,0.00
2013-11-28,33.6,26.1,14.3,21.0,17.2,10.7,87,70,51,30.51,30.11,22,7,22,0.00
2013-11-29,49.9,30.1,12.2,28.7,20.8,9.4,91,70,43,30.51,30.17,18,6,18,0.00
2013-11-30,59.4,38.4,22.5,33.6,26.7,19.8,92,65,33,30.17,30.05,10,2,10,0.00
2013-12-1,50.9,35.7,22.2,31.0,27.0,20.4,94,72,45,30.15,29.86,8,2,8,0.00
2013-12-2,65.6,44.7,29.9,36.0,32.1,26.1,90,66,31,29.86,29.50,12,3,12,0.00
2013-12-3,47.4,38.6,34.5,36.1,33.1,30.2,92,81,64,29.66,29.45,16,5,16,0.00
2013-12-4,35.9,22.9,16.0,33.7,18.4,7.2,95,83,67,30.13,29.61,30,18,30,0.00
2013-12-5,16.7,11.8,7.2,8.3,0.7,-4.7,73,61,50,30.51,30.10,30,14,30,0.00
2013-12-6,12.1,5.8,0.5,-3.3,-5.1,-8.0,73,61,47,30.78,30.50,20,10,20,0.00
2013-12-7,13.8,5.3,-5.6,1.4,-4.3,-9.6,84,65,46,30.84,30.47,12,5,12,0.00
2013-12-8,18.2,14.0,5.9,13.1,9.3,0.9,90,81,56,30.47,30.06,15,7,15,0.00
2013-12-9,11.6,4.6,-3.4,3.4,-2.4,-8.5,90,73,57,30.45,30.21,21,6,21,0.00
2013-12-10,31.9,21.2,11.6,20.8,12.7,3.4,82,70,55,30.35,30.19,16,4,16,0.00
2013-12-11,28.7,10.2,1.0,25.4,2.1,-4.3,88,70,52,30.72,30.28,29,9,29,0.00
2013-12-12,33.7,19.2,2.1,22.1,11.5,-3.2,90,72,60,30.56,30.13,14,4,14,0.00
2013-12-13,32.0,22.8,13.1,26.4,19.3,10.7,93,87,77,30.13,29.90,21,4,21,0.00
2013-12-14,22.9,17.4,9.7,19.6,13.4,7.1,93,84,76,30.27,30.08,21,9,21,0.00
2013-12-15,34.6,23.9,12.3,27.5,19.9,9.9,93,85,71,30.23,29.98,7,2,7,0.00
2013-12-16,47.7,28.1,13.8,33.9,22.9,11.8,94,82,58,30.20,30.00,20,3,20,0.00
2013-12-17,42.2,31.6,24.0,29.0,21.4,13.3,94,69,31,30.32,30.14,25,6,25,0.00
2013-12-18,58.3,41.1,26.9,31.0,26.5,19.2,82,58,34,30.13,29.69,21,6,21,0.00
2013-12-19,37.4,30.9,19.6,29.1,25.6,17.1,92,81,71,29.88,29.70,22,9,22,0.00
2013-12-20,19.6,15.8,12.6,17.3,12.1,9.2,91,85,82,30.02,29.87,26,11,26,0.00
2013-12-21,24.4,20.9,17.7,19.4,16.1,13.1,92,82,76,29.96,29.81,17,6,17,0.00
2013-12-22,21.2,16.6,7.6,19.1,11.0,1.6,92,78,64,30.45,29.89,23,12,23,0.00
2013-12-23,11.3,5.6,-0.1,2.9,-2.4,-6.1,79,69,54,30.69,30.44,21,8,21,0.00
2013-12-24,27.2,13.7,2.1,24.9,8.7,-2.9,94,80,68,30.62,30.22,21,8,21,0.00
2013-12-25,42.7,28.5,16.8,29.5,21.9,14.9,95,78,49,30.34,30.26,31,8,31,0.00
2013-12-26,49.8,32.7,19.9,26.6,22.3,17.2,92,68,39,30.32,30.13,14,3,14,0.03
2013-12-27,56.8,36.2,17.7,32.7,24.7,14.9,91,66,38,30.29,30.09,17,4,17,0.00
2013-12-28,55.1,40.9,18.7,30.4,27.1,9.4,76,60,35,30.12,29.77,34,11,34,0.00
2013-12-29,18.0,9.2,1.8,9.5,-6.0,-13.9,74,52,27,30.42,30.12,33,15,33,0.00
2013-12-30,37.4,19.0,1.8,25.4,6.4,-6.3,78,59,43,30.37,30.14,21,8,21,0.00
2013-12-31,51.4,19.8,7.8,27.9,12.1,4.2,87,73,38,30.35,30.00,21,7,21,0.00
2014-1-1,12.8,8.6,-0.7,7.8,3.7,-5.4,84,80,74,30.47,30.15,22,10,22,0.00
2014-1-2,10.4,2.9,-4.1,2.4,-2.7,-9.2,85,77,66,30.56,30.45,12,3,12,0.00